Location: Krasnoyarskiy Pitomnik
(51.1333°N, 71.6167°E)
Time: 08:20:49
(UTC+00:00)

ADEOS II - Pass Details

Date: 22 October 2021
Orbit: 799 x 800 km, 98.6° (Epoch: 06 December)

Event Time Altitude Azimuth Distance (km) Brightness Sun altitude
Rises 23:04:06 0° 7° (N) 3,324 5.6 -26.5°
Reaches altitude 10° 23:06:53 10° 353° (N) 2,389 4.6 -26.1°
Enters shadow 23:08:37 17° 337° (NNW) 1,934 4.0 -25.9°
